This demonstration page uses our WeatherBlox Daily Observations layout. Learn more.

Left ArrowRight Arrow

34.74481, -87.66753

Hourly Observations for October 29, 2019

Temp ( °F °C ) Dew Point ( °F °C ) Humidity (%) Winds ( mph kmh ) Pressure ( in mb ) Visibility ( mi km ) Precip ( " mm )
12:31 am 00:31 Partly Cloudy with Mist and Fog 51 10.6 49 9.4 92 92 Calm 30.10 1019 1 2 0.00 0.00
12:42 am 00:42 Mostly Clear with Mist and Fog 51 10.6 49 9.4 92 92 Calm 30.10 1019 3 5 0.00 0.00
12:53 am 00:53 Clear with Mist and Fog 51 10.6 49 9.4 92 92 Calm 30.09 1019 4 6 0.00 0.00
1:28 am 01:28 Partly Cloudy with Mist and Fog 51 10.6 49 9.4 92 92 Calm 30.10 1019 3 5 0.00 0.00
1:37 am 01:37 Mostly Cloudy with Mist and Fog 50 10 48 8.9 93 93 Calm 30.11 1020 5 8 0.00 0.00
1:45 am 01:45 Mostly Cloudy with Mist and Fog 50 10 48 8.9 93 93 Calm 30.11 1020 2 2 0.00 0.00
1:49 am 01:49 Mostly Cloudy with Mist and Fog 52 11 48 9 88 88 Calm 30.11 1019 1 1 0.00 0.00
1:53 am 01:53 Mostly Cloudy with Fog 51 10.6 48 8.9 89 89 Calm 30.09 1019 1 1 0.00 0.00
2:05 am 02:05 Mostly Cloudy with Fog 52 11.1 50 10 93 93 Calm 30.11 1019 0 0 0.00 0.00
2:48 am 02:48 Mostly Cloudy with Fog 52 11 50 10 94 94 Calm 30.10 1019 0 0 0.00 0.00
2:53 am 02:53 Mostly Cloudy with Fog 52 11.1 50 10 93 93 Calm 30.08 1019 1 1 0.00 0.00
3:08 am 03:08 Cloudy with Mist and Fog 52 11.1 51 10.6 97 97 Calm 30.10 1019 1 2 0.00 0.00
3:12 am 03:12 Cloudy with Mist and Fog 52 11.1 51 10.6 97 97 Calm 30.10 1019 3 5 0.00 0.00
3:53 am 03:53 Cloudy 53 11.7 52 11.1 96 96 Calm 30.09 1019 10 16 0.00 0.00
4:53 am 04:53 Cloudy 54 12.2 52 11.1 93 93 Calm 30.10 1019 10 16 0.00 0.00
5:53 am 05:53 Cloudy 54 12.2 53 11.7 97 97 Calm 30.11 1020 10 16 0.00 0.00
6:53 am 06:53 Cloudy 55 12.8 53 11.7 93 93 Calm 30.13 1020 10 16 0.00 0.00
7:53 am 07:53 Cloudy 56 13.3 53 11.7 90 90 SE 3 6 30.13 1020 9 14 0.00 0.00
8:53 am 08:53 Cloudy 58 14.4 53 11.7 84 84 NW 5 7 30.17 1022 10 16 0.00 0.00
9:53 am 09:53 Cloudy 59 15 52 11.1 78 78 Calm 30.18 1022 10 16 0.00 0.00
10:11 am 10:11 Cloudy 59 15 52 11.1 78 78 Calm 30.18 1022 10 16 0.00 0.00
10:53 am 10:53 Cloudy 59 15 52 11.1 78 78 NNE 6 9 30.18 1022 10 16 0.00 0.00
11:23 am 11:23 Cloudy 60 15.6 52 11.1 75 75 VRB 6 9 30.19 1022 10 16 0.00 0.00
11:53 am 11:53 Cloudy 60 15.6 52 11.1 75 75 ENE 5 7 30.18 1022 10 16 0.00 0.00
12:53 pm 12:53 Cloudy 61 16.1 52 11.1 72 72 E 9 15 30.16 1021 10 16 0.00 0.00
1:53 pm 13:53 Cloudy 62 16.7 53 11.7 73 73 NE 6 9 30.14 1021 10 16 0.00 0.00
2:53 pm 14:53 Cloudy 64 17.8 53 11.7 68 68 NE 6 9 30.12 1020 10 16 0.00 0.00
3:53 pm 15:53 Cloudy 63 17.2 53 11.7 70 70 ENE 3 6 30.12 1020 10 16 0.00 0.00
4:37 pm 16:37 Partly Cloudy 64 17.8 53 11.7 68 68 E 6 9 30.11 1020 10 16 0.00 0.00
4:53 pm 16:53 Mostly Sunny 64 17.8 53 11.7 68 68 E 5 7 30.12 1020 10 16 0.00 0.00
5:53 pm 17:53 Sunny 62 16.7 53 11.7 73 73 E 3 6 30.10 1019 10 16 0.00 0.00
6:53 pm 18:53 Clear 58 14.4 53 11.7 84 84 ENE 5 7 30.10 1019 10 16 0.00 0.00
7:53 pm 19:53 Clear 59 15 53 11.7 81 81 Calm 30.10 1019 10 16 0.00 0.00
8:53 pm 20:53 Clear 55 12.8 53 11.7 93 93 Calm 30.11 1020 10 16 0.00 0.00
9:53 pm 21:53 Clear 56 13.3 53 11.7 90 90 Calm 30.10 1019 10 16 0.00 0.00
10:53 pm 22:53 Clear 57 13.9 54 12.2 90 90 ESE 5 7 30.09 1019 10 16 0.00 0.00
11:53 pm 23:53 Clear 58 14.4 55 12.8 90 90 Calm 30.07 1018 10 16 0.00 0.00

Powered by AerisWeather